Temperature
25 23 23 24 29 30 29 28 29 28 27 26 26 26 26 26 25 23 20 19 19 19 18 18 18 18 18 18 18 18 18 18 18 18 18 18 18 18 18 18 18 18 18 18 18 18 18 18 18
24 23 24 29 31 29 28 29 28 27 26 26 26 26 26 24 22 21 20 19 19 19 18 17 18 18 18 18 18 18 18 18 18 18 18 18 18 18 18 18 18 18 18 18 18 18 18 18 18
24 24 28 32 31 29 28 29 28 27 26 26 26 25 25 23 22 21 20 19 19 19 18 18 18 18 18 18 18 18 18 18 18 18 18 18 18 18 18 18 18 18 18 18 17 17 17 17 18
25 27 30 32 30 29 29 29 28 28 27 26 26 25 23 22 21 21 19 19 19 19 18 18 18 18 18 18 18 18 18 18 18 18 18 18 18 17 17 17 17 17 17 17 17 17 17 17 18
27 31 32 31 30 30 30 29 28 28 27 26 26 25 23 21 21 20 19 20 20 19 19 18 18 18 18 18 18 18 18 18 18 18 18 18 17 17 17 17 17 17 17 17 17 17 17 17 17
31 33 32 31 30 30 30 29 28 28 27 26 26 25 22 21 21 20 20 20 20 19 19 18 18 18 18 18 18 18 18 18 18 18 18 18 17 17 17 17 17 17 17 17 17 17 17 17 17
32 33 32 31 30 30 30 29 29 28 28 26 26 25 23 21 20 20 20 19 19 19 19 18 18 18 18 18 18 18 18 18 18 18 18 18 17 17 17 17 17 17 17 17 17 17 17 17 17
31 33 32 32 31 30 30 29 28 28 27 26 26 26 24 21 20 20 20 19 19 19 19 18 18 18 18 17 18 18 18 18 18 18 18 18 17 17 17 17 17 17 17 17 17 17 17 17 17
31 33 32 32 31 30 30 29 28 27 27 26 25 25 24 21 21 20 20 20 19 19 19 19 19 18 18 18 18 18 18 18 18 18 18 17 17 17 17 17 17 17 17 17 17 17 17 17 17
33 33 32 32 32 31 30 29 28 28 27 26 25 24 22 21 21 21 21 21 20 19 19 18 18 18 18 18 18 17 17 17 17 17 17 17 17 17 17 17 17 17 17 17 17 17 17 17 17
33 33 33 32 32 31 30 30 29 29 29 28 26 24 22 22 22 22 22 21 21 20 19 19 19 18 18 18 18 18 18 18 17 17 17 17 17 17 17 17 17 17 17 17 17 17 17 17 17
33 33 32 32 31 31 31 30 29 29 29 27 26 24 23 23 23 22 22 21 21 20 19 19 19 18 18 18 18 18 18 18 18 18 17 17 17 17 17 17 17 17 17 17 17 17 17 17 17
33 33 32 32 31 31 30 30 30 29 28 26 25 24 24 24 23 22 22 21 20 20 19 19 19 18 18 18 18 18 18 18 18 17 17 17 17 17 17 17 17 17 17 17 17 17 17 17 17
33 33 32 32 31 31 31 30 30 29 27 26 25 25 24 24 23 22 22 21 20 20 19 19 19 18 18 18 18 18 18 18 18 17 17 17 17 17 17 17 17 17 17 17 17 17 17 17 17
32 33 32 32 31 31 31 31 31 29 27 27 26 25 25 24 23 23 22 21 21 20 20 19 19 19 19 18 18 18 18 18 18 17 17 17 17 17 17 17 17 17 17 17 17 17 17 17 17
33 33 32 32 32 31 31 31 31 29 28 27 27 26 25 24 24 23 22 21 21 20 20 20 19 19 19 19 18 18 18 18 18 18 17 17 17 17 17 17 17 17 17 17 17 17 17 17 17
33 33 33 32 32 32 32 32 31 29 29 28 27 26 25 24 24 23 22 21 21 21 20 20 20 19 19 19 19 18 18 18 18 18 18 17 17 17 17 17 17 17 17 17 17 17 17 17 17
33 33 33 33 33 32 32 32 32 30 29 29 28 27 26 25 24 23 22 22 21 21 20 20 20 19 19 19 19 18 18 18 18 18 18 18 17 17 17 17 17 17 17 17 17 17 17 17 17
33 33 33 33 33 32 32 32 32 30 30 29 28 27 27 26 25 24 23 22 21 21 21 20 20 20 20 19 19 19 19 18 18 18 18 18 17 17 18 18 17 17 17 17 17 17 17 17 17
33 33 33 33 32 32 32 32 33 31 30 30 29 28 27 27 25 24 23 22 22 22 21 21 20 20 20 19 19 19 19 18 18 18 18 18 18 18 18 18 18 17 18 17 17 17 17 17 17
33 33 33 33 32 32 32 32 32 32 30 29 29 28 28 27 26 24 23 23 22 22 22 21 21 20 20 20 19 19 19 19 18 18 18 18 18 18 18 18 18 18 17 18 18 17 17 17 17
32 33 33 32 32 32 32 32 33 32 31 31 30 29 28 27 27 25 24 23 23 22 22 21 21 21 20 20 19 19 19 19 19 19 19 18 18 18 18 18 18 18 18 18 18 18 17 17 17
33 33 33 33 32 32 32 32 33 32 32 32 31 30 29 28 27 26 25 24 23 23 22 22 21 21 21 20 20 20 19 19 19 19 19 18 18 18 18 18 18 18 18 18 18 18 17 17 17
32 32 32 32 33 31 32 32 32 33 32 32 32 30 29 29 27 26 25 24 23 23 22 22 22 21 21 21 20 20 19 19 19 19 18 18 18 18 18 18 18 18 18 18 18 18 17 17 17
32 31 31 30 30 31 32 31 32 33 33 32 32 31 30 29 28 26 25 24 23 23 22 22 22 22 21 21 20 20 20 20 19 19 19 18 18 18 18 18 18 18 18 18 18 18 17 17 17
32 32 31 30 30 32 31 31 33 33 31 31 31 30 30 29 28 27 26 24 23 23 22 22 22 22 22 21 21 20 20 19 19 19 19 18 18 18 18 18 18 18 18 18 18 17 17 17 17
31 32 33 32 31 31 32 32 32 32 31 31 31 30 29 29 28 27 26 25 24 23 23 22 22 22 22 21 21 21 20 20 19 19 19 19 18 18 18 18 18 18 18 18 18 17 17 17 17
32 32 32 31 30 30 31 31 32 31 31 31 31 30 29 28 28 27 26 25 24 23 23 22 22 22 22 22 21 21 21 20 20 20 19 19 19 19 18 18 18 18 18 18 18 17 17 17 17
30 30 31 31 31 30 30 31 32 31 30 30 30 29 28 28 27 26 25 25 24 23 23 22 22 22 21 21 21 21 21 20 20 20 19 19 19 19 19 18 18 18 18 18 18 17 17 17 17
31 31 31 30 30 30 30 31 30 30 30 29 29 28 28 27 27 26 25 24 24 23 23 23 22 22 21 21 21 21 21 20 20 20 20 19 19 19 19 18 18 18 17 17 17 17 17 17 17
Wind_Speed
14 12 7 5 2 9 15 12 10 9 8 8 8 7 9 10 8 9 8 9 9 9 10 10 10 10 10 11 12 13 12 12 12 12 12 12 13 13 13 13 13 13 13 14 14 13 13 13 13
10 7 5 1 6 12 14 11 12 11 8 7 8 9 10 10 10 9 9 8 8 9 10 10 11 10 11 11 11 12 12 12 11 11 12 12 12 12 12 12 12 12 12 13 13 13 13 13 12
8 6 2 5 12 14 13 11 11 9 7 6 7 8 8 8 9 7 10 10 9 8 9 12 10 10 10 10 11 11 11 11 11 11 11 11 11 11 12 12 12 12 12 12 13 13 13 12 12
5 3 1 8 16 14 11 9 8 8 8 7 7 9 9 8 6 9 12 10 9 9 9 12 9 9 10 10 10 10 10 10 10 10 11 11 10 10 11 11 12 12 12 12 12 12 12 12 11
4 1 7 13 15 12 10 8 6 7 7 7 8 11 10 8 10 12 11 10 9 9 9 12 10 10 10 10 9 9 9 9 10 10 11 11 10 10 11 12 12 12 12 12 12 11 11 10 10
1 2 9 13 13 10 9 7 7 9 9 9 10 11 9 8 10 11 10 9 8 9 9 12 11 9 9 9 9 9 8 8 9 10 11 11 11 10 11 11 11 11 11 11 11 10 10 9 9
3 7 12 13 11 10 8 6 7 8 9 8 7 10 9 10 10 10 9 8 7 7 8 9 10 10 9 8 8 8 7 8 9 9 9 10 10 10 10 10 10 10 10 10 10 9 9 8 8
2 4 11 11 11 10 7 6 6 7 9 8 4 7 10 12 11 10 9 8 7 6 7 7 7 8 8 10 9 7 7 8 8 8 9 9 10 10 10 10 10 9 9 9 9 9 8 8 8
2 5 11 11 9 9 7 7 7 6 9 7 5 8 13 15 12 11 9 8 7 6 5 5 6 7 7 7 10 8 8 8 8 8 8 7 7 8 9 10 9 9 9 9 9 9 8 8 9
1 6 10 8 8 9 7 7 7 6 8 8 9 11 14 14 12 10 9 9 8 7 6 5 5 6 6 6 7 6 6 7 5 6 6 6 6 5 7 10 9 8 9 8 8 8 8 7 7
2 6 7 6 7 7 8 7 6 6 7 7 11 14 14 13 11 9 8 7 8 8 6 6 6 5 5 5 5 4 4 5 5 6 5 5 5 5 6 6 8 8 9 7 8 7 5 4 3
2 4 4 6 6 6 7 7 6 5 7 8 11 14 14 13 11 9 8 7 7 7 7 6 6 5 4 3 4 4 4 4 4 5 4 4 3 3 4 3 4 5 5 5 5 3 4 3 3
3 4 5 6 7 7 6 6 5 6 7 10 12 14 13 12 10 8 7 7 7 7 7 6 5 5 4 3 2 3 3 4 4 4 4 3 3 3 4 3 2 3 4 5 4 4 4 4 4
3 5 6 6 7 6 6 5 5 7 9 11 12 13 12 11 10 9 9 8 8 7 7 7 6 6 5 4 3 2 3 3 3 4 4 3 3 3 3 4 3 3 3 3 3 3 3 3 2
5 6 6 6 6 6 5 5 6 9 11 12 12 11 11 10 10 10 9 9 9 8 8 8 7 7 6 5 4 4 3 4 4 4 4 4 3 3 3 2 3 3 3 4 3 3 3 3 3
6 7 6 6 7 6 7 3 8 10 12 12 12 11 11 11 11 10 9 9 9 9 9 8 7 7 7 5 4 4 3 4 4 4 4 4 3 3 3 3 3 3 3 3 3 3 3 2 2
8 7 4 6 8 6 8 3 7 11 12 12 12 12 12 11 11 10 10 10 10 9 9 9 8 8 7 6 5 4 3 3 4 4 4 4 4 4 4 3 2 4 3 3 3 3 3 3 2
6 6 5 5 7 9 9 6 6 11 12 12 12 12 12 12 12 11 11 11 10 10 10 9 9 8 8 7 5 4 4 4 4 4 4 4 5 5 4 4 4 4 3 3 2 2 3 3 3
6 7 6 4 4 8 10 9 7 10 12 12 12 13 13 12 11 11 11 11 11 11 11 10 10 9 8 6 6 6 5 5 4 4 5 5 5 5 5 3 4 4 4 4 4 4 4 4 3
9 9 7 5 4 6 7 8 7 9 12 12 13 13 13 12 11 12 12 12 13 12 12 11 11 11 10 7 6 5 4 4 4 4 4 6 6 6 6 5 5 5 4 5 5 5 4 4 4
11 10 8 6 5 7 7 8 8 9 10 11 12 12 13 13 13 13 13 13 13 13 13 12 12 11 11 9 7 5 4 5 4 5 5 5 6 6 6 5 5 5 6 5 6 6 7 5 4
11 8 8 7 9 6 7 6 6 8 10 12 13 13 13 13 13 13 14 14 14 13 13 12 12 11 10 10 9 8 7 6 5 4 4 4 5 5 5 6 5 5 5 5 7 7 6 6 5
8 4 7 9 9 9 8 8 4 6 7 9 11 12 12 13 13 14 14 14 13 13 12 12 12 11 11 11 10 9 8 6 5 5 5 4 4 5 5 5 5 5 5 5 6 5 6 6 6
6 6 6 9 10 12 9 9 7 4 5 6 8 10 11 11 12 13 13 12 12 12 12 12 12 11 11 11 11 10 9 7 6 5 5 5 4 4 5 5 5 5 5 5 5 5 6 6 6
11 11 10 11 11 11 7 9 7 3 3 4 5 8 10 10 12 13 13 13 13 13 13 12 12 12 11 11 11 10 10 8 8 6 6 5 4 4 5 5 5 4 4 5 5 5 5 6 6
14 16 14 12 12 10 8 10 6 2 2 3 4 6 8 10 11 12 13 13 13 13 13 12 12 11 11 11 10 9 9 8 6 7 5 5 5 4 4 5 5 5 5 5 5 5 5 5 6
13 15 15 14 14 12 9 7 6 3 3 3 4 6 7 9 10 11 12 12 12 13 13 13 12 11 11 11 10 9 9 8 7 6 6 5 5 5 5 5 5 5 5 5 5 4 5 5 6
9 11 10 13 13 13 12 11 7 5 3 4 5 6 7 7 8 10 10 11 11 12 11 11 11 11 11 10 10 8 9 9 8 7 7 6 6 5 5 6 6 6 5 5 5 5 4 5 5
9 10 10 12 13 13 13 8 1 2 2 2 4 5 6 7 7 8 8 9 10 11 11 11 11 10 10 10 9 8 8 9 8 8 7 7 6 7 7 7 6 6 5 5 5 5 5 5 5
9 10 12 12 12 12 13 6 4 2 1 0 1 3 4 5 6 7 8 8 9 10 10 10 10 10 10 9 9 9 8 8 8 8 8 7 7 7 7 7 6 6 5 5 5 5 5 5 5
Wind_Direction
168 175 198 228 150 70 64 63 65 71 66 61 60 58 60 47 45 85 102 109 114 116 115 117 109 109 107 109 112 112 112 110 114 120 121 122 123 123 123 123 124 125 126 125 124 124 122 121 122
170 183 221 254 58 70 66 62 66 67 83 86 74 74 74 66 68 100 116 117 123 116 116 108 109 110 108 109 113 113 112 111 111 118 122 122 122 122 123 123 126 127 127 127 128 128 127 125 123
179 220 282 56 57 61 68 68 77 83 88 84 82 66 63 78 90 105 118 130 125 112 113 108 112 113 114 114 117 116 114 112 112 116 122 121 118 122 125 127 130 128 126 126 128 127 127 126 126
204 210 87 67 67 64 71 79 87 91 84 82 95 88 79 76 92 112 127 133 124 122 120 111 112 115 118 117 119 118 116 115 113 114 116 116 113 123 127 129 130 127 125 125 125 126 126 126 126
242 64 81 73 69 70 73 75 72 79 83 90 95 99 92 84 105 119 130 130 127 124 117 116 111 114 120 119 117 114 114 116 118 117 114 114 114 114 120 119 121 122 123 123 124 126 129 131 130
261 53 66 70 74 77 80 81 83 87 97 100 104 104 96 114 121 127 130 130 125 124 121 119 123 117 118 122 121 120 120 120 119 121 120 121 120 116 116 116 119 121 121 123 125 127 129 132 132
28 56 66 70 79 81 78 79 77 93 102 101 109 106 118 128 129 132 129 128 126 124 125 128 134 134 128 119 126 121 126 127 120 121 123 123 122 119 116 117 120 121 122 124 123 125 130 133 135
344 69 71 69 72 80 94 91 83 85 94 109 112 112 132 139 140 136 134 133 127 127 127 131 133 129 137 134 128 123 118 118 117 120 125 127 131 130 129 130 123 124 127 127 126 128 129 133 138
283 65 67 67 71 91 108 106 98 96 114 111 92 98 125 139 145 145 142 141 140 141 138 134 131 131 132 129 130 137 133 130 136 130 131 144 136 130 138 118 126 132 132 129 129 132 135 143 149
354 65 69 71 81 100 111 107 119 128 124 120 114 113 130 146 155 156 152 152 151 150 149 142 141 139 135 129 134 144 143 135 138 126 130 128 117 118 116 122 134 137 135 135 135 143 163 183 154
56 68 83 94 98 108 118 117 124 125 120 130 139 143 149 156 163 162 155 152 147 149 151 155 148 142 138 138 142 137 134 132 133 120 120 120 133 132 131 137 146 149 156 153 151 173 172 160 142
107 89 100 110 118 123 120 122 124 108 94 121 140 148 156 163 166 165 157 152 147 151 157 156 151 151 151 142 139 153 146 136 127 126 134 132 129 131 125 132 137 149 150 153 157 153 151 155 162
140 117 125 130 139 133 135 133 124 125 121 132 142 154 161 166 166 167 163 161 161 163 164 161 161 158 161 161 174 146 140 140 135 141 144 151 152 144 135 133 141 148 144 159 167 165 158 171 182
115 135 138 144 143 151 156 147 152 143 147 149 156 164 169 170 171 169 176 178 177 175 172 169 173 169 173 173 172 164 156 148 149 158 154 166 162 148 153 156 157 156 160 155 174 175 175 193 192
157 155 154 162 168 169 180 178 173 152 160 165 170 173 176 180 181 183 184 186 184 181 180 178 181 179 180 183 183 177 173 162 171 161 166 183 179 162 176 163 178 167 162 170 190 187 189 201 200
193 200 189 172 186 186 220 193 154 162 172 176 179 181 186 190 194 192 191 190 186 183 182 188 189 180 183 186 191 182 178 170 177 177 170 184 187 185 198 192 189 175 195 192 190 209 197 204 217
213 225 209 172 193 200 226 231 153 172 183 185 188 189 193 195 202 198 197 192 190 188 187 188 191 187 187 183 189 192 187 195 190 187 190 184 191 194 211 205 184 201 203 207 221 187 212 208 222
225 233 219 208 193 215 231 237 172 184 195 195 195 196 198 203 204 199 198 194 192 190 190 191 191 189 187 186 189 197 198 201 201 199 200 200 197 200 214 206 196 213 207 209 221 225 230 226 224
253 247 239 219 199 222 237 243 211 194 204 204 202 203 205 209 202 196 196 194 191 190 190 192 196 188 189 191 196 196 197 201 203 208 205 206 206 202 217 228 198 217 214 223 223 230 220 224 214
235 238 232 206 188 226 244 246 226 202 211 211 208 207 209 207 198 194 195 193 194 192 192 192 196 194 197 194 199 202 206 211 210 214 205 214 213 213 211 221 222 217 219 222 227 232 241 235 215
230 238 235 222 194 216 247 237 211 203 211 214 216 214 212 208 202 194 195 196 195 194 195 196 198 196 200 195 196 195 198 217 208 209 206 212 215 218 228 224 230 226 230 224 226 228 233 240 234
227 231 239 224 224 225 236 259 200 199 206 211 213 212 211 207 204 198 195 197 197 195 193 195 195 197 197 198 204 204 210 215 213 210 202 203 212 221 223 230 235 236 242 238 237 226 235 241 244
235 222 220 227 236 249 232 261 232 190 215 213 210 209 208 203 201 197 196 195 195 192 190 190 191 194 195 200 203 209 219 219 213 205 201 214 210 216 226 233 236 235 241 245 253 245 243 239 243
178 183 197 226 240 240 240 254 255 222 233 225 209 203 202 198 196 194 192 189 190 187 186 186 187 192 194 198 204 210 216 217 216 213 210 214 209 211 216 227 231 237 246 243 246 247 239 244 249
204 215 219 225 229 239 219 245 257 266 256 241 220 201 196 192 191 189 187 186 187 186 186 185 186 191 194 198 204 208 213 212 214 220 217 224 222 216 215 229 228 233 238 244 245 243 250 243 246
217 229 234 242 241 233 205 239 243 237 265 250 218 191 186 185 186 186 185 185 185 186 185 185 185 189 193 197 202 207 210 215 214 211 227 222 233 234 221 222 227 232 236 242 239 245 243 243 246
222 232 245 249 256 262 241 232 226 220 228 204 183 173 177 181 180 181 181 183 183 185 186 186 185 190 194 196 199 204 207 215 215 207 216 224 224 225 213 218 226 230 235 243 248 249 253 252 252
250 234 230 240 244 248 244 237 237 220 221 188 178 175 170 171 175 175 177 179 181 182 182 185 187 191 193 195 198 198 202 206 209 214 214 222 222 223 217 217 223 227 230 232 239 246 250 257 256
198 214 229 239 246 249 250 235 197 197 229 202 184 176 168 170 169 168 170 174 177 178 178 182 187 192 193 194 195 200 200 201 204 209 213 215 217 213 217 220 222 225 227 227 232 247 247 251 257
231 227 221 230 233 244 260 245 101 119 135 164 156 156 164 164 161 158 158 165 173 177 179 183 187 194 194 190 190 195 198 200 204 205 208 209 211 213 217 221 220 221 222 222 226 236 240 245 250
Height
1492 1492 1494 1495 1488 1489 1497 1497 1494 1497 1501 1505 1506 1505 1506 1508 1510 1522 1526 1525 1526 1526 1526 1525 1525 1525 1526 1526 1527 1528 1529 1529 1530 1531 1532 1534 1535 1536 1537 1539 1540 1541 1542 1544 1545 1546 1548 1550 1551
1494 1495 1496 1491 1485 1498 1504 1498 1499 1502 1506 1508 1508 1509 1509 1515 1519 1523 1525 1526 1527 1528 1529 1528 1527 1528 1528 1529 1530 1531 1531 1532 1532 1533 1534 1536 1537 1538 1539 1541 1542 1543 1544 1546 1547 1548 1550 1551 1552
1496 1496 1496 1487 1491 1500 1505 1500 1503 1506 1508 1509 1511 1512 1515 1520 1523 1525 1527 1528 1529 1530 1531 1529 1529 1530 1530 1531 1532 1533 1533 1534 1534 1535 1536 1538 1539 1540 1541 1542 1544 1545 1546 1547 1549 1550 1551 1553 1554
1498 1498 1493 1489 1498 1499 1500 1502 1505 1506 1509 1511 1512 1515 1521 1525 1526 1528 1528 1530 1531 1532 1533 1531 1531 1531 1532 1533 1534 1534 1535 1536 1537 1537 1539 1540 1540 1541 1543 1544 1545 1546 1548 1549 1551 1552 1553 1554 1555
1499 1494 1489 1494 1499 1500 1501 1505 1506 1506 1510 1512 1514 1517 1524 1528 1528 1529 1530 1532 1533 1534 1535 1533 1532 1532 1533 1534 1535 1536 1537 1538 1539 1539 1540 1541 1542 1543 1544 1545 1546 1548 1549 1551 1552 1553 1555 1556 1557
1497 1489 1492 1500 1503 1502 1504 1507 1507 1509 1512 1515 1516 1519 1526 1529 1530 1531 1533 1534 1535 1536 1536 1535 1534 1534 1535 1536 1537 1538 1539 1540 1541 1541 1542 1543 1544 1545 1546 1547 1549 1550 1551 1553 1554 1555 1556 1557 1558
1496 1490 1495 1497 1502 1503 1506 1508 1507 1509 1513 1517 1518 1520 1527 1531 1532 1533 1534 1535 1536 1538 1538 1538 1538 1537 1537 1537 1538 1540 1540 1541 1542 1543 1544 1545 1546 1547 1548 1550 1551 1552 1553 1554 1555 1557 1558 1559 1559
1497 1491 1493 1496 1501 1505 1507 1509 1511 1511 1516 1520 1520 1521 1526 1531 1533 1534 1535 1537 1537 1538 1540 1539 1540 1540 1541 1540 1540 1541 1542 1543 1544 1545 1546 1547 1548 1549 1550 1551 1552 1553 1555 1556 1557 1558 1559 1560 1561
1498 1492 1498 1498 1501 1504 1507 1509 1514 1516 1518 1520 1522 1523 1527 1531 1533 1535 1536 1538 1538 1539 1540 1541 1542 1542 1543 1544 1543 1544 1544 1545 1546 1547 1547 1548 1550 1551 1552 1553 1553 1555 1556 1557 1558 1559 1560 1561 1562
1496 1494 1498 1498 1500 1503 1508 1510 1514 1515 1517 1520 1524 1527 1529 1531 1533 1535 1536 1538 1539 1540 1541 1542 1543 1543 1544 1545 1545 1546 1547 1547 1548 1548 1549 1550 1551 1553 1554 1554 1555 1556 1557 1558 1559 1561 1562 1563 1565
1496 1495 1498 1500 1503 1505 1508 1511 1513 1513 1515 1519 1523 1527 1530 1532 1534 1536 1537 1539 1540 1541 1542 1543 1544 1544 1545 1546 1547 1548 1548 1548 1549 1549 1550 1551 1553 1554 1555 1555 1556 1557 1558 1560 1561 1562 1564 1565 1565
1497 1498 1500 1502 1505 1507 1508 1510 1512 1513 1516 1520 1523 1526 1529 1532 1534 1536 1538 1539 1541 1542 1543 1544 1544 1545 1545 1547 1548 1548 1550 1550 1551 1550 1551 1552 1554 1555 1556 1556 1557 1558 1559 1560 1562 1563 1564 1564 1565
1497 1499 1501 1503 1506 1507 1510 1511 1513 1515 1519 1521 1524 1527 1529 1532 1534 1536 1538 1540 1541 1542 1543 1544 1544 1544 1545 1546 1548 1549 1550 1551 1551 1551 1552 1553 1554 1555 1556 1556 1557 1559 1560 1561 1562 1563 1564 1564 1565
1499 1500 1502 1503 1505 1508 1509 1511 1513 1516 1519 1522 1525 1527 1529 1531 1534 1536 1538 1539 1541 1542 1543 1544 1544 1545 1545 1547 1548 1549 1550 1550 1552 1552 1553 1553 1555 1555 1556 1557 1558 1559 1560 1561 1562 1563 1564 1565 1565
1500 1500 1502 1503 1505 1507 1508 1509 1510 1515 1518 1522 1524 1527 1529 1531 1533 1535 1537 1538 1540 1541 1542 1543 1544 1545 1546 1547 1548 1550 1551 1551 1552 1553 1553 1554 1555 1555 1556 1558 1558 1559 1560 1560 1561 1562 1563 1564 1565
1496 1497 1501 1502 1503 1506 1508 1508 1507 1513 1516 1519 1522 1525 1528 1530 1532 1534 1536 1537 1539 1540 1541 1543 1545 1545 1546 1547 1548 1550 1551 1552 1552 1553 1554 1554 1555 1555 1556 1557 1558 1559 1560 1560 1561 1562 1563 1564 1564
1495 1497 1499 1500 1501 1503 1504 1503 1505 1511 1514 1516 1520 1523 1526 1528 1530 1532 1534 1536 1537 1539 1540 1542 1543 1544 1546 1547 1548 1549 1550 1551 1552 1553 1553 1554 1554 1555 1556 1557 1557 1558 1559 1560 1561 1561 1562 1563 1563
1497 1495 1497 1498 1497 1500 1501 1499 1502 1508 1510 1513 1517 1520 1523 1525 1528 1530 1532 1534 1535 1537 1539 1541 1542 1543 1545 1546 1547 1548 1549 1550 1551 1552 1552 1553 1554 1554 1555 1556 1556 1557 1558 1559 1559 1559 1560 1561 1561
1490 1493 1495 1494 1494 1497 1498 1497 1497 1503 1507 1510 1513 1516 1519 1522 1525 1528 1530 1532 1533 1535 1537 1538 1540 1542 1543 1545 1546 1547 1549 1550 1550 1551 1551 1552 1553 1553 1554 1555 1555 1555 1556 1557 1558 1558 1559 1559 1560
1492 1495 1494 1493 1493 1496 1495 1495 1493 1499 1502 1505 1509 1512 1515 1519 1522 1525 1527 1529 1531 1532 1534 1536 1538 1540 1541 1543 1544 1545 1547 1548 1549 1550 1550 1550 1551 1552 1553 1553 1554 1554 1554 1555 1555 1556 1557 1558 1558
1491 1492 1492 1494 1494 1494 1495 1495 1492 1494 1499 1503 1505 1508 1511 1514 1517 1521 1523 1526 1528 1530 1532 1534 1536 1538 1539 1541 1543 1544 1545 1546 1548 1548 1548 1549 1549 1550 1551 1551 1552 1552 1553 1553 1553 1554 1554 1555 1556
1493 1487 1489 1492 1497 1495 1496 1502 1491 1489 1494 1497 1500 1503 1506 1510 1513 1517 1520 1522 1525 1527 1529 1531 1533 1535 1537 1539 1541 1542 1543 1545 1545 1546 1547 1547 1548 1548 1549 1549 1550 1550 1551 1551 1551 1552 1552 1553 1553
1487 1486 1488 1490 1493 1496 1494 1500 1490 1486 1490 1490 1494 1498 1501 1506 1509 1513 1516 1519 1522 1525 1527 1529 1530 1532 1534 1536 1538 1539 1541 1543 1544 1544 1545 1545 1546 1546 1547 1547 1548 1548 1548 1548 1549 1549 1549 1550 1550
1487 1490 1491 1490 1490 1506 1497 1501 1496 1483 1485 1485 1488 1493 1498 1502 1505 1509 1513 1516 1519 1522 1524 1526 1528 1529 1531 1533 1535 1537 1539 1540 1541 1542 1543 1544 1545 1545 1545 1545 1545 1546 1546 1546 1546 1546 1547 1547 1547
1487 1493 1504 1508 1508 1503 1491 1497 1492 1480 1481 1484 1486 1490 1494 1498 1502 1505 1509 1512 1515 1518 1521 1523 1525 1527 1529 1531 1532 1534 1536 1537 1538 1540 1541 1542 1543 1543 1543 1543 1543 1544 1544 1544 1544 1544 1544 1544 1544
1483 1484 1501 1512 1507 1495 1494 1495 1483 1479 1483 1484 1486 1488 1491 1495 1499 1502 1506 1509 1512 1515 1517 1520 1522 1524 1526 1528 1530 1532 1533 1535 1537 1537 1539 1540 1541 1541 1541 1541 1541 1541 1541 1542 1542 1542 1542 1542 1542
1482 1481 1474 1485 1491 1496 1488 1484 1479 1479 1481 1483 1484 1487 1490 1493 1496 1500 1503 1506 1509 1512 1514 1517 1519 1521 1523 1526 1527 1529 1531 1532 1534 1535 1536 1537 1538 1539 1538 1539 1539 1539 1539 1539 1539 1540 1539 1539 1539
1477 1474 1481 1487 1503 1506 1495 1489 1484 1480 1480 1481 1483 1486 1489 1492 1495 1498 1501 1504 1507 1509 1512 1515 1517 1519 1521 1523 1525 1527 1528 1529 1531 1532 1533 1534 1535 1536 1536 1536 1536 1537 1537 1537 1537 1537 1537 1537 1537
1482 1482 1480 1481 1483 1498 1501 1489 1473 1478 1480 1481 1482 1485 1488 1491 1493 1496 1499 1502 1504 1507 1509 1511 1514 1516 1518 1520 1522 1524 1525 1527 1528 1529 1530 1531 1532 1533 1533 1534 1534 1534 1534 1534 1534 1535 1535 1534 1534
1473 1474 1478 1488 1491 1487 1489 1486 1475 1477 1480 1482 1483 1486 1488 1490 1492 1495 1498 1500 1502 1505 1507 1509 1511 1513 1515 1517 1519 1520 1522 1524 1526 1527 1528 1529 1530 1530 1531 1531 1531 1532 1532 1532 1531 1532 1532 1532 1531